Year,Month,Day,Hour,Minute,Value (Times are PST for temperature in C)
2007,07,11,00,00,22.90
2007,07,11,00,01,22.90
2007,07,11,00,02,22.90
2007,07,11,00,03,22.80
2007,07,11,00,04,22.80
2007,07,11,00,05,22.80
2007,07,11,00,06,22.70
2007,07,11,00,07,22.70
2007,07,11,00,08,22.70
2007,07,11,00,09,22.80
2007,07,11,00,10,22.90
2007,07,11,00,11,22.90
2007,07,11,00,12,23.10
2007,07,11,00,13,23.20
2007,07,11,00,14,23.30
2007,07,11,00,15,23.40
2007,07,11,00,16,23.50
2007,07,11,00,17,23.60
2007,07,11,00,18,23.60
2007,07,11,00,19,23.60
2007,07,11,00,20,23.40
2007,07,11,00,21,23.40
2007,07,11,00,22,23.30
2007,07,11,00,23,23.20
2007,07,11,00,24,23.10
2007,07,11,00,25,23.10
2007,07,11,00,26,23.10
2007,07,11,00,27,23.20
2007,07,11,00,28,23.30
2007,07,11,00,29,23.30
2007,07,11,00,30,23.30
2007,07,11,00,31,23.30
2007,07,11,00,32,23.30
2007,07,11,00,33,23.30
2007,07,11,00,34,23.30
2007,07,11,00,35,23.30
2007,07,11,00,36,23.30
2007,07,11,00,37,23.30
2007,07,11,00,38,23.30
2007,07,11,00,39,23.30
2007,07,11,00,40,23.30
2007,07,11,00,41,23.20
2007,07,11,00,42,23.20
2007,07,11,00,43,23.20
2007,07,11,00,44,23.10
2007,07,11,00,45,23.10
2007,07,11,00,46,22.90
2007,07,11,00,47,22.90
2007,07,11,00,48,22.80
2007,07,11,00,49,22.70
2007,07,11,00,50,22.70
2007,07,11,00,51,22.60
2007,07,11,00,52,22.40
2007,07,11,00,53,22.30
2007,07,11,00,54,22.20
2007,07,11,00,55,22.10
2007,07,11,00,56,22.10
2007,07,11,00,57,22.00
2007,07,11,00,58,21.90
2007,07,11,00,59,21.80
2007,07,11,01,00,21.70
2007,07,11,01,01,21.60
2007,07,11,01,02,21.60
2007,07,11,01,03,21.60
2007,07,11,01,04,21.60
2007,07,11,01,05,21.70
2007,07,11,01,06,21.80
2007,07,11,01,07,21.90
2007,07,11,01,08,22.00
2007,07,11,01,09,22.10
2007,07,11,01,10,22.20
2007,07,11,01,11,22.20
2007,07,11,01,12,22.20
2007,07,11,01,13,22.20
2007,07,11,01,14,22.20
2007,07,11,01,15,22.10
2007,07,11,01,16,22.10
2007,07,11,01,17,22.00
2007,07,11,01,18,22.00
2007,07,11,01,19,21.90
2007,07,11,01,20,21.90
2007,07,11,01,21,21.80
2007,07,11,01,22,21.70
2007,07,11,01,23,21.70
2007,07,11,01,24,21.60
2007,07,11,01,25,21.60
2007,07,11,01,26,21.60
2007,07,11,01,27,21.40
2007,07,11,01,28,21.40
2007,07,11,01,29,21.30
2007,07,11,01,30,21.30
2007,07,11,01,31,21.30
2007,07,11,01,32,21.20
2007,07,11,01,33,21.10
2007,07,11,01,34,21.00
2007,07,11,01,35,21.00
2007,07,11,01,36,20.80
2007,07,11,01,37,20.80
2007,07,11,01,38,20.60
2007,07,11,01,39,20.50
2007,07,11,01,40,20.40
2007,07,11,01,41,20.30
2007,07,11,01,42,20.30
2007,07,11,01,43,20.20
2007,07,11,01,44,20.20
2007,07,11,01,45,20.20
2007,07,11,01,46,20.20
2007,07,11,01,47,20.20
2007,07,11,01,48,20.20
2007,07,11,01,49,20.20
2007,07,11,01,50,20.20
2007,07,11,01,51,20.10
2007,07,11,01,52,20.10
2007,07,11,01,53,20.10
2007,07,11,01,54,20.10
2007,07,11,01,55,20.10
2007,07,11,01,56,20.10
2007,07,11,01,57,20.10
2007,07,11,01,58,20.20
2007,07,11,01,59,20.20
2007,07,11,02,00,20.20
2007,07,11,02,01,20.20
2007,07,11,02,02,20.20
2007,07,11,02,03,20.20
2007,07,11,02,04,20.20
2007,07,11,02,05,20.20
2007,07,11,02,06,20.20
2007,07,11,02,07,20.20
2007,07,11,02,08,20.30
2007,07,11,02,09,20.30
2007,07,11,02,10,20.50
2007,07,11,02,11,20.50
2007,07,11,02,12,20.60
2007,07,11,02,13,20.60
2007,07,11,02,14,20.60
2007,07,11,02,15,20.70
2007,07,11,02,16,20.70
2007,07,11,02,17,20.70
2007,07,11,02,18,20.70
2007,07,11,02,19,20.60
2007,07,11,02,20,20.60
2007,07,11,02,21,20.60
2007,07,11,02,22,20.60
2007,07,11,02,23,20.60
2007,07,11,02,24,20.50
2007,07,11,02,25,20.50
2007,07,11,02,26,20.40
2007,07,11,02,27,20.30
2007,07,11,02,28,20.20
2007,07,11,02,29,20.20
2007,07,11,02,30,20.10
2007,07,11,02,31,20.00
2007,07,11,02,32,19.90
2007,07,11,02,33,19.90
2007,07,11,02,34,19.90
2007,07,11,02,35,19.90
2007,07,11,02,36,19.90
2007,07,11,02,37,19.80
2007,07,11,02,38,19.80
2007,07,11,02,39,19.80
2007,07,11,02,40,19.80
2007,07,11,02,41,19.80
2007,07,11,02,42,19.80
2007,07,11,02,43,19.80
2007,07,11,02,44,19.70
2007,07,11,02,45,19.70
2007,07,11,02,46,19.70
2007,07,11,02,47,19.60
2007,07,11,02,48,19.60
2007,07,11,02,49,19.60
2007,07,11,02,50,19.60
2007,07,11,02,51,19.60
2007,07,11,02,52,19.60
2007,07,11,02,53,19.50
2007,07,11,02,54,19.50
2007,07,11,02,55,19.50
2007,07,11,02,56,19.50
2007,07,11,02,57,19.40
2007,07,11,02,58,19.40
2007,07,11,02,59,19.40
2007,07,11,03,00,19.40
2007,07,11,03,01,19.30
2007,07,11,03,02,19.30
2007,07,11,03,03,19.20
2007,07,11,03,04,19.20
2007,07,11,03,05,19.10
2007,07,11,03,06,19.10
2007,07,11,03,07,19.10
2007,07,11,03,08,19.10
2007,07,11,03,09,19.10
2007,07,11,03,10,19.00
2007,07,11,03,11,18.90
2007,07,11,03,12,18.90
2007,07,11,03,13,18.90
2007,07,11,03,14,18.90
2007,07,11,03,15,18.90
2007,07,11,03,16,18.90
2007,07,11,03,17,18.90
2007,07,11,03,18,18.90
2007,07,11,03,19,18.90
2007,07,11,03,20,18.90
2007,07,11,03,21,18.90
2007,07,11,03,22,18.90
2007,07,11,03,23,18.80
2007,07,11,03,24,18.80
2007,07,11,03,25,18.80
2007,07,11,03,26,18.80
2007,07,11,03,27,18.80
2007,07,11,03,28,18.70
2007,07,11,03,29,18.70
2007,07,11,03,30,18.70
2007,07,11,03,31,18.70
2007,07,11,03,32,18.70
2007,07,11,03,33,18.80
2007,07,11,03,34,18.80
2007,07,11,03,35,18.80
2007,07,11,03,36,18.80
2007,07,11,03,37,18.70
2007,07,11,03,38,18.70
2007,07,11,03,39,18.70
2007,07,11,03,40,18.80
2007,07,11,03,41,18.80
2007,07,11,03,42,18.80
2007,07,11,03,43,18.80
2007,07,11,03,44,18.80
2007,07,11,03,45,18.90
2007,07,11,03,46,18.90
2007,07,11,03,47,18.90
2007,07,11,03,48,18.90
2007,07,11,03,49,18.90
2007,07,11,03,50,18.90
2007,07,11,03,51,18.90
2007,07,11,03,52,18.90
2007,07,11,03,53,18.90
2007,07,11,03,54,18.90
2007,07,11,03,55,19.00
2007,07,11,03,56,19.00
2007,07,11,03,57,18.90
2007,07,11,03,58,18.90
2007,07,11,03,59,18.90
2007,07,11,04,00,18.90
2007,07,11,04,01,18.90
2007,07,11,04,02,18.80
2007,07,11,04,03,18.80
2007,07,11,04,04,18.80
2007,07,11,04,05,18.70
2007,07,11,04,06,18.70
2007,07,11,04,07,18.70
2007,07,11,04,08,18.60
2007,07,11,04,09,18.60
2007,07,11,04,10,18.60
2007,07,11,04,11,18.50
2007,07,11,04,12,18.50
2007,07,11,04,13,18.50
2007,07,11,04,14,18.50
2007,07,11,04,15,18.40
2007,07,11,04,16,18.40
2007,07,11,04,17,18.30
2007,07,11,04,18,18.30
2007,07,11,04,19,18.30
2007,07,11,04,20,18.20
2007,07,11,04,21,18.20
2007,07,11,04,22,18.20
2007,07,11,04,23,18.20
2007,07,11,04,24,18.20
2007,07,11,04,25,18.20
2007,07,11,04,26,18.20
2007,07,11,04,27,18.70
2007,07,11,04,28,18.90
2007,07,11,04,29,19.00
2007,07,11,04,30,19.10
2007,07,11,04,31,19.10
2007,07,11,04,32,19.00
2007,07,11,04,33,18.90
2007,07,11,04,34,18.90
2007,07,11,04,35,18.80
2007,07,11,04,36,18.70
2007,07,11,04,37,18.60
2007,07,11,04,38,18.50
2007,07,11,04,39,18.50
2007,07,11,04,40,18.40
2007,07,11,04,41,18.40
2007,07,11,04,42,18.30
2007,07,11,04,43,18.30
2007,07,11,04,44,18.30
2007,07,11,04,45,18.30
2007,07,11,04,46,18.30
2007,07,11,04,47,18.30
2007,07,11,04,48,18.30
2007,07,11,04,49,18.30
2007,07,11,04,50,18.30
2007,07,11,04,51,18.30
2007,07,11,04,52,18.30
2007,07,11,04,53,18.30
2007,07,11,04,54,18.30
2007,07,11,04,55,18.30
2007,07,11,04,56,18.30
2007,07,11,04,57,18.30
2007,07,11,04,58,18.30
2007,07,11,04,59,18.30
2007,07,11,05,00,18.40
2007,07,11,05,01,18.40
2007,07,11,05,02,18.40
2007,07,11,05,03,18.40
2007,07,11,05,04,18.40
2007,07,11,05,05,18.40
2007,07,11,05,06,18.40
2007,07,11,05,07,18.40
2007,07,11,05,08,18.40
2007,07,11,05,09,18.40
2007,07,11,05,10,18.40
2007,07,11,05,11,18.40
2007,07,11,05,12,18.40
2007,07,11,05,13,18.40
2007,07,11,05,14,18.40
2007,07,11,05,15,18.40
2007,07,11,05,16,18.30
2007,07,11,05,17,18.30
2007,07,11,05,18,18.30
2007,07,11,05,19,18.30
2007,07,11,05,20,18.30
2007,07,11,05,21,18.20
2007,07,11,05,22,18.20
2007,07,11,05,23,18.20
2007,07,11,05,24,18.20
2007,07,11,05,25,18.20
2007,07,11,05,26,18.20
2007,07,11,05,27,18.10
2007,07,11,05,28,18.10
2007,07,11,05,29,18.10
2007,07,11,05,30,18.10
2007,07,11,05,31,18.00
2007,07,11,05,32,17.90
2007,07,11,05,33,17.90
2007,07,11,05,34,17.90
2007,07,11,05,35,17.90
2007,07,11,05,36,17.90
2007,07,11,05,37,17.90
2007,07,11,05,38,17.90
2007,07,11,05,39,17.90
2007,07,11,05,40,17.90
2007,07,11,05,41,17.90
2007,07,11,05,42,17.90
2007,07,11,05,43,17.90
2007,07,11,05,44,17.90
2007,07,11,05,45,17.90
2007,07,11,05,46,17.90
2007,07,11,05,47,17.90
2007,07,11,05,48,17.80
2007,07,11,05,49,17.80
2007,07,11,05,50,17.80
2007,07,11,05,51,17.80
2007,07,11,05,52,17.80
2007,07,11,05,53,17.80
2007,07,11,05,54,17.80
2007,07,11,05,55,17.80
2007,07,11,05,56,17.80
2007,07,11,05,57,17.80
2007,07,11,05,58,17.80
2007,07,11,05,59,17.70
2007,07,11,06,00,17.70
2007,07,11,06,01,17.70
2007,07,11,06,02,17.60
2007,07,11,06,03,17.60
2007,07,11,06,04,17.60
2007,07,11,06,05,17.60
2007,07,11,06,06,17.60
2007,07,11,06,07,17.60
2007,07,11,06,08,17.60
2007,07,11,06,09,17.70
2007,07,11,06,10,17.70
2007,07,11,06,11,17.70
2007,07,11,06,12,17.70
2007,07,11,06,13,17.70
2007,07,11,06,14,17.70
2007,07,11,06,15,17.70
2007,07,11,06,16,17.70
2007,07,11,06,17,17.70
2007,07,11,06,18,17.80
2007,07,11,06,19,17.80
2007,07,11,06,20,17.90
2007,07,11,06,21,17.90
2007,07,11,06,22,18.10
2007,07,11,06,23,18.10
2007,07,11,06,24,18.20
2007,07,11,06,25,18.30
2007,07,11,06,26,18.40
2007,07,11,06,27,18.40
2007,07,11,06,28,18.50
2007,07,11,06,29,18.50
2007,07,11,06,30,18.60
2007,07,11,06,31,18.60
2007,07,11,06,32,18.60
2007,07,11,06,33,18.60
2007,07,11,06,34,18.60
2007,07,11,06,35,18.60
2007,07,11,06,36,18.70
2007,07,11,06,37,18.70
2007,07,11,06,38,18.70
2007,07,11,06,39,18.70
2007,07,11,06,40,18.70
2007,07,11,06,41,18.70
2007,07,11,06,42,18.70
2007,07,11,06,43,18.80
2007,07,11,06,44,18.80
2007,07,11,06,45,18.90
2007,07,11,06,46,18.90
2007,07,11,06,47,18.90
2007,07,11,06,48,18.90
2007,07,11,06,49,19.00
2007,07,11,06,50,19.10
2007,07,11,06,51,19.10
2007,07,11,06,52,19.10
2007,07,11,06,53,19.10
2007,07,11,06,54,19.20
2007,07,11,06,55,19.20
2007,07,11,06,56,19.30
2007,07,11,06,57,19.30
2007,07,11,06,58,19.40
2007,07,11,06,59,19.40
2007,07,11,07,00,19.40
2007,07,11,07,01,19.40
2007,07,11,07,02,19.40
2007,07,11,07,03,19.50
2007,07,11,07,04,19.50
2007,07,11,07,05,19.50
2007,07,11,07,06,19.60
2007,07,11,07,07,19.60
2007,07,11,07,08,19.70
2007,07,11,07,09,19.70
2007,07,11,07,10,19.80
2007,07,11,07,11,19.80
2007,07,11,07,12,19.90
2007,07,11,07,13,19.90
2007,07,11,07,14,20.00
2007,07,11,07,15,20.10
2007,07,11,07,16,20.10
2007,07,11,07,17,20.20
2007,07,11,07,18,20.20
2007,07,11,07,19,20.20
2007,07,11,07,20,20.20
2007,07,11,07,21,20.20
2007,07,11,07,22,20.20
2007,07,11,07,23,20.20
2007,07,11,07,24,20.20
2007,07,11,07,25,20.40
2007,07,11,07,26,20.40
2007,07,11,07,27,20.50
2007,07,11,07,28,20.50
2007,07,11,07,29,20.60
2007,07,11,07,30,20.60
2007,07,11,07,31,20.70
2007,07,11,07,32,20.70
2007,07,11,07,33,20.80
2007,07,11,07,34,20.80
2007,07,11,07,35,20.90
2007,07,11,07,36,20.90
2007,07,11,07,37,20.90
2007,07,11,07,38,21.00
2007,07,11,07,39,21.10
2007,07,11,07,40,21.20
2007,07,11,07,41,21.30
2007,07,11,07,42,21.40
2007,07,11,07,43,21.60
2007,07,11,07,44,21.60
2007,07,11,07,45,21.60
2007,07,11,07,46,21.70
2007,07,11,07,47,21.80
2007,07,11,07,48,22.00
2007,07,11,07,49,22.10
2007,07,11,07,50,22.20
2007,07,11,07,51,22.20
2007,07,11,07,52,22.30
2007,07,11,07,53,22.30
2007,07,11,07,54,22.40
2007,07,11,07,55,22.50
2007,07,11,07,56,22.60
2007,07,11,07,57,22.70
2007,07,11,07,58,22.80
2007,07,11,07,59,22.80
2007,07,11,08,00,22.90
2007,07,11,08,01,23.00
2007,07,11,08,02,23.10
2007,07,11,08,03,23.20
2007,07,11,08,04,23.20
2007,07,11,08,05,23.30
2007,07,11,08,06,23.30
2007,07,11,08,07,23.50
2007,07,11,08,08,23.60
2007,07,11,08,09,23.70
2007,07,11,08,10,23.70
2007,07,11,08,11,23.80
2007,07,11,08,12,23.80
2007,07,11,08,13,23.90
2007,07,11,08,14,24.00
2007,07,11,08,15,24.10
2007,07,11,08,16,24.10
2007,07,11,08,17,24.20
2007,07,11,08,18,24.30
2007,07,11,08,19,24.40
2007,07,11,08,20,24.50
2007,07,11,08,21,24.60
2007,07,11,08,22,24.60
2007,07,11,08,23,24.70
2007,07,11,08,24,24.80
2007,07,11,08,25,24.80
2007,07,11,08,26,24.90
2007,07,11,08,27,24.90
2007,07,11,08,28,24.90
2007,07,11,08,29,24.90
2007,07,11,08,30,24.80
2007,07,11,08,31,24.70
2007,07,11,08,32,24.50
2007,07,11,08,33,24.40
2007,07,11,08,34,24.30
2007,07,11,08,35,24.20
2007,07,11,08,36,24.10
2007,07,11,08,37,24.10
2007,07,11,08,38,24.10
2007,07,11,08,39,24.10
2007,07,11,08,40,24.00
2007,07,11,08,41,23.90
2007,07,11,08,42,23.90
2007,07,11,08,43,23.90
2007,07,11,08,44,23.90
2007,07,11,08,45,24.00
2007,07,11,08,46,24.10
2007,07,11,08,47,24.10
2007,07,11,08,48,24.10
2007,07,11,08,49,24.20
2007,07,11,08,50,24.30
2007,07,11,08,51,24.30
2007,07,11,08,52,24.40
2007,07,11,08,53,24.50
2007,07,11,08,54,24.50
2007,07,11,08,55,24.60
2007,07,11,08,56,24.70
2007,07,11,08,57,24.70
2007,07,11,08,58,24.70
2007,07,11,08,59,24.70
2007,07,11,09,00,24.70
2007,07,11,09,01,24.60
2007,07,11,09,02,24.60
2007,07,11,09,03,24.60
2007,07,11,09,04,24.60
2007,07,11,09,05,24.60
2007,07,11,09,06,24.60
2007,07,11,09,07,24.60
2007,07,11,09,08,24.60
2007,07,11,09,09,24.70
2007,07,11,09,10,24.80
2007,07,11,09,11,24.90
2007,07,11,09,12,25.00
2007,07,11,09,13,25.10
2007,07,11,09,14,25.10
2007,07,11,09,15,25.10
2007,07,11,09,16,25.20
2007,07,11,09,17,25.30
2007,07,11,09,18,25.40
2007,07,11,09,19,25.40
2007,07,11,09,20,25.30
2007,07,11,09,21,25.20
2007,07,11,09,22,25.20
2007,07,11,09,23,25.30
2007,07,11,09,24,25.30
2007,07,11,09,25,25.20
2007,07,11,09,26,25.10
2007,07,11,09,27,25.00
2007,07,11,09,28,24.90
2007,07,11,09,29,24.80
2007,07,11,09,30,24.80
2007,07,11,09,31,24.80
2007,07,11,09,32,24.80
2007,07,11,09,33,24.90
2007,07,11,09,34,24.90
2007,07,11,09,35,24.90
2007,07,11,09,36,24.90
2007,07,11,09,37,24.90
2007,07,11,09,38,24.80
2007,07,11,09,39,24.80
2007,07,11,09,40,24.80
2007,07,11,09,41,24.80
2007,07,11,09,42,24.90
2007,07,11,09,43,24.90
2007,07,11,09,44,25.10
2007,07,11,09,45,25.50
2007,07,11,09,46,25.90
2007,07,11,09,47,26.50
2007,07,11,09,48,26.90
2007,07,11,09,49,27.10
2007,07,11,09,50,27.30
2007,07,11,09,51,28.00
2007,07,11,09,52,28.40
2007,07,11,09,53,28.70
2007,07,11,09,54,28.90
2007,07,11,09,55,29.20
2007,07,11,09,56,29.40
2007,07,11,09,57,29.50
2007,07,11,09,58,29.60
2007,07,11,09,59,29.70
2007,07,11,10,00,29.70
2007,07,11,10,01,29.80
2007,07,11,10,02,29.90
2007,07,11,10,03,29.90
2007,07,11,10,04,29.90
2007,07,11,10,05,29.90
2007,07,11,10,06,30.00
2007,07,11,10,07,30.10
2007,07,11,10,08,30.10
2007,07,11,10,09,30.10
2007,07,11,10,10,30.00
2007,07,11,10,11,29.90
2007,07,11,10,12,29.90
2007,07,11,10,13,29.90
2007,07,11,10,14,29.80
2007,07,11,10,15,29.90
2007,07,11,10,16,29.90
2007,07,11,10,17,30.00
2007,07,11,10,18,30.10
2007,07,11,10,19,30.20
2007,07,11,10,20,30.20
2007,07,11,10,21,30.10
2007,07,11,10,22,30.10
2007,07,11,10,23,30.10
2007,07,11,10,24,30.10
2007,07,11,10,25,30.10
2007,07,11,10,26,30.10
2007,07,11,10,27,30.20
2007,07,11,10,28,30.20
2007,07,11,10,29,30.20
2007,07,11,10,30,30.30
2007,07,11,10,31,30.30
2007,07,11,10,32,30.30
2007,07,11,10,33,30.40
2007,07,11,10,34,30.40
2007,07,11,10,35,30.40
2007,07,11,10,36,30.40
2007,07,11,10,37,30.60
2007,07,11,10,38,30.60
2007,07,11,10,39,30.60
2007,07,11,10,40,30.60
2007,07,11,10,41,30.60
2007,07,11,10,42,30.60
2007,07,11,10,43,30.60
2007,07,11,10,44,30.60
2007,07,11,10,45,30.60
2007,07,11,10,46,30.60
2007,07,11,10,47,30.70
2007,07,11,10,48,30.70
2007,07,11,10,49,30.60
2007,07,11,10,50,30.70
2007,07,11,10,51,30.70
2007,07,11,10,52,30.80
2007,07,11,10,53,30.90
2007,07,11,10,54,31.00
2007,07,11,10,55,31.00
2007,07,11,10,56,31.00
2007,07,11,10,57,31.00
2007,07,11,10,58,31.00
2007,07,11,10,59,31.00
2007,07,11,11,00,31.00
2007,07,11,11,01,31.00
2007,07,11,11,02,31.00
2007,07,11,11,03,31.10
2007,07,11,11,04,31.20
2007,07,11,11,05,31.30
2007,07,11,11,06,31.30
2007,07,11,11,07,31.20
2007,07,11,11,08,31.20
2007,07,11,11,09,31.20
2007,07,11,11,10,31.20
2007,07,11,11,11,31.30
2007,07,11,11,12,31.30
2007,07,11,11,13,31.40
2007,07,11,11,14,31.40
2007,07,11,11,15,31.40
2007,07,11,11,16,31.40
2007,07,11,11,17,31.40
2007,07,11,11,18,31.40
2007,07,11,11,19,31.60
2007,07,11,11,20,31.60
2007,07,11,11,21,31.60
2007,07,11,11,22,31.70
2007,07,11,11,23,31.80
2007,07,11,11,24,31.80
2007,07,11,11,25,31.80
2007,07,11,11,26,31.80
2007,07,11,11,27,31.70
2007,07,11,11,28,31.60
2007,07,11,11,29,31.60
2007,07,11,11,30,31.70
2007,07,11,11,31,31.80
2007,07,11,11,32,31.80
2007,07,11,11,33,31.80
2007,07,11,11,34,31.80
2007,07,11,11,35,31.80
2007,07,11,11,36,31.70
2007,07,11,11,37,31.70
2007,07,11,11,38,31.70
2007,07,11,11,39,31.80
2007,07,11,11,40,31.90
2007,07,11,11,41,31.90
2007,07,11,11,42,32.00
2007,07,11,11,43,32.10
2007,07,11,11,44,32.10
2007,07,11,11,45,32.20
2007,07,11,11,46,32.20
2007,07,11,11,47,32.10
2007,07,11,11,48,32.10
2007,07,11,11,49,32.10
2007,07,11,11,50,32.00
2007,07,11,11,51,31.90
2007,07,11,11,52,31.90
2007,07,11,11,53,31.90
2007,07,11,11,54,31.90
2007,07,11,11,55,31.90
2007,07,11,11,56,31.80
2007,07,11,11,57,31.80
2007,07,11,11,58,31.90
2007,07,11,11,59,31.90
2007,07,11,12,00,31.90
2007,07,11,12,01,32.00
2007,07,11,12,02,32.10
2007,07,11,12,03,32.20
2007,07,11,12,04,32.20
2007,07,11,12,05,32.20
2007,07,11,12,06,32.30
2007,07,11,12,07,32.40
2007,07,11,12,08,32.40
2007,07,11,12,09,32.40
2007,07,11,12,10,32.50
2007,07,11,12,11,32.50
2007,07,11,12,12,32.40
2007,07,11,12,13,32.30
2007,07,11,12,14,32.30
2007,07,11,12,15,32.40
2007,07,11,12,16,32.60
2007,07,11,12,17,32.70
2007,07,11,12,18,32.80
2007,07,11,12,19,32.80
2007,07,11,12,20,33.00
2007,07,11,12,21,33.10
2007,07,11,12,22,33.20
2007,07,11,12,23,33.20
2007,07,11,12,24,33.10
2007,07,11,12,25,33.10
2007,07,11,12,26,33.00
2007,07,11,12,27,33.10
2007,07,11,12,28,33.20
2007,07,11,12,29,33.30
2007,07,11,12,30,33.40
2007,07,11,12,31,33.40
2007,07,11,12,32,33.30
2007,07,11,12,33,33.10
2007,07,11,12,34,33.00
2007,07,11,12,35,33.00
2007,07,11,12,36,33.00
2007,07,11,12,37,33.10
2007,07,11,12,38,33.20
2007,07,11,12,39,33.30
2007,07,11,12,40,33.50
2007,07,11,12,41,33.60
2007,07,11,12,42,33.60
2007,07,11,12,43,33.50
2007,07,11,12,44,33.40
2007,07,11,12,45,33.40
2007,07,11,12,46,33.30
2007,07,11,12,47,33.20
2007,07,11,12,48,33.20
2007,07,11,12,49,33.20
2007,07,11,12,50,33.20
2007,07,11,12,51,33.20
2007,07,11,12,52,33.20
2007,07,11,12,53,33.20
2007,07,11,12,54,33.20
2007,07,11,12,55,33.10
2007,07,11,12,56,33.10
2007,07,11,12,57,33.10
2007,07,11,12,58,33.10
2007,07,11,12,59,33.10
2007,07,11,13,00,33.10
2007,07,11,13,01,33.10
2007,07,11,13,02,33.00
2007,07,11,13,03,32.90
2007,07,11,13,04,33.00
2007,07,11,13,05,33.00
2007,07,11,13,06,33.10
2007,07,11,13,07,33.10
2007,07,11,13,08,33.10
2007,07,11,13,09,33.20
2007,07,11,13,10,33.20
2007,07,11,13,11,33.20
2007,07,11,13,12,33.10
2007,07,11,13,13,33.10
2007,07,11,13,14,33.10
2007,07,11,13,15,33.20
2007,07,11,13,16,33.20
2007,07,11,13,17,33.30
2007,07,11,13,18,33.40
2007,07,11,13,19,33.50
2007,07,11,13,20,33.70
2007,07,11,13,21,33.70
2007,07,11,13,22,33.80
2007,07,11,13,23,33.70
2007,07,11,13,24,33.60
2007,07,11,13,25,33.60
2007,07,11,13,26,33.60
2007,07,11,13,27,33.70
2007,07,11,13,28,33.70
2007,07,11,13,29,33.70
2007,07,11,13,30,33.70
2007,07,11,13,31,33.70
2007,07,11,13,32,33.80
2007,07,11,13,33,33.80
2007,07,11,13,34,33.80
2007,07,11,13,35,33.80
2007,07,11,13,36,33.80
2007,07,11,13,37,33.80
2007,07,11,13,38,33.80
2007,07,11,13,39,33.80
2007,07,11,13,40,34.00
2007,07,11,13,41,34.00
2007,07,11,13,42,34.00
2007,07,11,13,43,33.90
2007,07,11,13,44,33.80
2007,07,11,13,45,33.80
2007,07,11,13,46,33.80
2007,07,11,13,47,33.80
2007,07,11,13,48,33.80
2007,07,11,13,49,34.00
2007,07,11,13,50,34.00
2007,07,11,13,51,33.90
2007,07,11,13,52,33.80
2007,07,11,13,53,33.70
2007,07,11,13,54,33.70
2007,07,11,13,55,33.80
2007,07,11,13,56,33.90
2007,07,11,13,57,34.00
2007,07,11,13,58,34.00
2007,07,11,13,59,34.10
2007,07,11,14,00,34.10
2007,07,11,14,01,34.10
2007,07,11,14,02,34.20
2007,07,11,14,03,34.30
2007,07,11,14,04,34.40
2007,07,11,14,05,34.40
2007,07,11,14,06,34.40
2007,07,11,14,07,34.50
2007,07,11,14,08,34.60
2007,07,11,14,09,34.60
2007,07,11,14,10,34.70
2007,07,11,14,11,34.80
2007,07,11,14,12,34.80
2007,07,11,14,13,34.90
2007,07,11,14,14,34.90
2007,07,11,14,15,34.90
2007,07,11,14,16,34.90
2007,07,11,14,17,35.10
2007,07,11,14,18,35.10
2007,07,11,14,19,35.20
2007,07,11,14,20,35.20
2007,07,11,14,21,35.10
2007,07,11,14,22,35.20
2007,07,11,14,23,35.20
2007,07,11,14,24,35.30
2007,07,11,14,25,35.30
2007,07,11,14,26,35.50
2007,07,11,14,27,35.50
2007,07,11,14,28,35.60
2007,07,11,14,29,35.70
2007,07,11,14,30,35.80
2007,07,11,14,31,35.90
2007,07,11,14,32,35.90
2007,07,11,14,33,36.00
2007,07,11,14,34,35.90
2007,07,11,14,35,35.90
2007,07,11,14,36,35.90
2007,07,11,14,37,35.90
2007,07,11,14,38,36.00
2007,07,11,14,39,35.60
2007,07,11,14,40,35.30
2007,07,11,14,41,35.00
2007,07,11,14,42,34.70
2007,07,11,14,43,34.60
2007,07,11,14,44,34.40
2007,07,11,14,45,34.40
2007,07,11,14,46,34.30
2007,07,11,14,47,34.20
2007,07,11,14,48,34.20
2007,07,11,14,49,34.10
2007,07,11,14,50,33.90
2007,07,11,14,51,33.30
2007,07,11,14,52,32.60
2007,07,11,14,53,32.00
2007,07,11,14,54,31.50
2007,07,11,14,55,31.30
2007,07,11,14,56,31.20
2007,07,11,14,57,31.20
2007,07,11,14,58,31.30
2007,07,11,14,59,31.40
2007,07,11,15,00,31.40
2007,07,11,15,01,31.40
2007,07,11,15,02,31.30
2007,07,11,15,03,31.00
2007,07,11,15,04,30.70
2007,07,11,15,05,30.60
2007,07,11,15,06,30.40
2007,07,11,15,07,30.20
2007,07,11,15,08,30.30
2007,07,11,15,09,30.20
2007,07,11,15,10,30.30
2007,07,11,15,11,30.30
2007,07,11,15,12,30.50
2007,07,11,15,13,30.70
2007,07,11,15,14,30.80
2007,07,11,15,15,30.80
2007,07,11,15,16,30.80
2007,07,11,15,17,30.90
2007,07,11,15,18,30.90
2007,07,11,15,19,31.00
2007,07,11,15,20,31.20
2007,07,11,15,21,31.30
2007,07,11,15,22,31.40
2007,07,11,15,23,31.60
2007,07,11,15,24,31.60
2007,07,11,15,25,31.70
2007,07,11,15,26,31.70
2007,07,11,15,27,31.70
2007,07,11,15,28,31.80
2007,07,11,15,29,31.80
2007,07,11,15,30,32.00
2007,07,11,15,31,32.10
2007,07,11,15,32,32.10
2007,07,11,15,33,32.10
2007,07,11,15,34,32.10
2007,07,11,15,35,32.20
2007,07,11,15,36,32.40
2007,07,11,15,37,32.60
2007,07,11,15,38,32.90
2007,07,11,15,39,33.20
2007,07,11,15,40,33.50
2007,07,11,15,41,33.80
2007,07,11,15,42,34.20
2007,07,11,15,43,34.50
2007,07,11,15,44,34.80
2007,07,11,15,45,35.10
2007,07,11,15,46,35.40
2007,07,11,15,47,35.60
2007,07,11,15,48,35.70
2007,07,11,15,49,35.90
2007,07,11,15,50,35.90
2007,07,11,15,51,35.90
2007,07,11,15,52,35.90
2007,07,11,15,53,35.90
2007,07,11,15,54,35.90
2007,07,11,15,55,35.90
2007,07,11,15,56,36.00
2007,07,11,15,57,36.00
2007,07,11,15,58,36.00
2007,07,11,15,59,36.00
2007,07,11,16,00,36.00
2007,07,11,16,01,36.00
2007,07,11,16,02,36.00
2007,07,11,16,03,36.00
2007,07,11,16,04,36.00
2007,07,11,16,05,36.20
2007,07,11,16,06,36.20
2007,07,11,16,07,36.00
2007,07,11,16,08,36.00
2007,07,11,16,09,35.90
2007,07,11,16,10,35.70
2007,07,11,16,11,35.70
2007,07,11,16,12,35.60
2007,07,11,16,13,35.50
2007,07,11,16,14,35.50
2007,07,11,16,15,35.50
2007,07,11,16,16,35.50
2007,07,11,16,17,35.60
2007,07,11,16,18,35.60
2007,07,11,16,19,35.60
2007,07,11,16,20,35.60
2007,07,11,16,21,35.70
2007,07,11,16,22,35.70
2007,07,11,16,23,35.70
2007,07,11,16,24,35.80
2007,07,11,16,25,35.90
2007,07,11,16,26,36.00
2007,07,11,16,27,36.20
2007,07,11,16,28,36.00
2007,07,11,16,29,36.00
2007,07,11,16,30,36.00
2007,07,11,16,31,36.10
2007,07,11,16,32,36.20
2007,07,11,16,33,36.20
2007,07,11,16,34,36.20
2007,07,11,16,35,36.20
2007,07,11,16,36,36.30
2007,07,11,16,37,36.30
2007,07,11,16,38,36.20
2007,07,11,16,39,36.20
2007,07,11,16,40,36.00
2007,07,11,16,41,36.00
2007,07,11,16,42,36.00
2007,07,11,16,43,35.90
2007,07,11,16,44,35.90
2007,07,11,16,45,35.90
2007,07,11,16,46,35.80
2007,07,11,16,47,35.80
2007,07,11,16,48,35.90
2007,07,11,16,49,35.90
2007,07,11,16,50,35.90
2007,07,11,16,51,35.90
2007,07,11,16,52,35.90
2007,07,11,16,53,36.00
2007,07,11,16,54,36.10
2007,07,11,16,55,36.20
2007,07,11,16,56,36.30
2007,07,11,16,57,36.30
2007,07,11,16,58,36.40
2007,07,11,16,59,36.40
2007,07,11,17,00,36.60
2007,07,11,17,01,36.60
2007,07,11,17,02,36.70
2007,07,11,17,03,36.60
2007,07,11,17,04,36.40
2007,07,11,17,05,36.40
2007,07,11,17,06,36.10
2007,07,11,17,07,35.60
2007,07,11,17,08,35.10
2007,07,11,17,09,34.80
2007,07,11,17,10,34.60
2007,07,11,17,11,34.60
2007,07,11,17,12,34.60
2007,07,11,17,13,34.20
2007,07,11,17,14,34.00
2007,07,11,17,15,33.90
2007,07,11,17,16,33.30
2007,07,11,17,17,33.00
2007,07,11,17,18,32.90
2007,07,11,17,19,32.70